This is the latest recevied weather packets stored in our database for station/object KR8N. If no packets are shown the sender has not sent any weather packets the latest 10 day(s).
| Time | Temp. | Humidity | Pressure | Rain* | Wind** | Luminosity | Snow |
|---|---|---|---|---|---|---|---|
| 1777871744 | 8.33° C | 68% | 1019.4 hPa | 0 mm | - | 0 W/m² | - |
| 1777871440 | 8.33° C | 67% | 1019.3 hPa | 0 mm | - | 0 W/m² | - |
| 1777871137 | 8.33° C | 65% | 1019.3 hPa | 0 mm | - | 0 W/m² | - |
| 1777870834 | 8.33° C | 67% | 1019.5 hPa | 0 mm | - | 0 W/m² | - |
| 1777870531 | 8.33° C | 64% | 1019.3 hPa | 0 mm | - | 0 W/m² | - |
| 1777870226 | 8.33° C | 65% | 1019.2 hPa | 0 mm | - | 0 W/m² | - |
| 1777869924 | 8.33° C | 62% | 1019.3 hPa | 0 mm | - | 0 W/m² | - |
| 1777869621 | 8.33° C | 60% | 1019.1 hPa | 0 mm | - | 0 W/m² | - |
| 1777869318 | 8.33° C | 67% | 1019.1 hPa | 0 mm | - | 0 W/m² | - |
| 1777869015 | 8.33° C | 65% | 1019.4 hPa | 0 mm | - | 0 W/m² | - |
| 1777868712 | 8.33° C | 66% | 1019.2 hPa | 0 mm | - | 0 W/m² | - |
| 1777868409 | 8.33° C | 63% | 1019.1 hPa | 0 mm | - | 0 W/m² | - |
| 1777868105 | 8.33° C | 63% | 1019.1 hPa | 0 mm | - | 0 W/m² | - |
| 1777867801 | 8.33° C | 63% | 1019 hPa | 0 mm | - | 0 W/m² | - |
| 1777867499 | 8.33° C | 64% | 1019.2 hPa | 0 mm | - | 0 W/m² | - |
| 1777867194 | 8.33° C | 64% | 1019.2 hPa | 0 mm | - | 0 W/m² | - |
| 1777866892 | 8.33° C | 61% | 1019.3 hPa | 0 mm | - | 0 W/m² | - |
| 1777866588 | 8.33° C | 62% | 1019.1 hPa | 0 mm | - | 0 W/m² | - |
| 1777866286 | 8.33° C | 62% | 1019.2 hPa | 0 mm | - | 0 W/m² | - |
| 1777865983 | 8.33° C | 61% | 1019 hPa | 0 mm | - | 0 W/m² | - |
| 1777865681 | 8.33° C | 63% | 1019 hPa | 0 mm | - | 0 W/m² | - |
| 1777865378 | 8.33° C | 64% | 1019.1 hPa | 0 mm | - | 0 W/m² | - |
| 1777865074 | 8.33° C | 62% | 1019 hPa | 0 mm | - | 0 W/m² | - |
| 1777864771 | 8.33° C | 62% | 1019.2 hPa | 0 mm | - | 0 W/m² | - |
| 1777864468 | 8.33° C | 63% | 1019.1 hPa | 0 mm | - | 0 W/m² | - |
* Rain latest hour (hover to see other rain measurements)
** Current wind speed in m/s (hover to see current wind gust speed)